Regional Weather Roundup
Issued by NWS Albany, NY

Home | Current Version | Previous Version | Text Only | Print | Product List | Glossary On
Versions: 1 2 3 4 5 6 7 8 9 10 11 12 13 14 15 16 17 18 19 20 21 22 23 24 25 26 27 28
000
ASUS41 KALY 221110
RWRALY

NEW YORK STATE HOURLY WEATHER ROUNDUP
NATIONAL WEATHER SERVICE ALBANY NY
700 AM EDT TUE AUG 22 2017

NOTE: "FAIR" INDICATES FEW OR NO CLOUDS BELOW 12,000 FEET WITH NO
SIGNIFICANT WEATHER AND/OR NO OBSTRUCTIONS TO VISIBILITY.

NYZ032-033-038>043-046>054-057>066-NYZ062>081-082-084-221200-
EAST


CITY           SKY/WX    TMP DP  RH WIND       PRES   REMARKS
ALBANY         CLOUDY    71  67  87 S7        29.99S
GLENS FALLS    CLOUDY    64  62  93 CALM      29.98S FOG
POUGHKEEPSIE   CLEAR     68  65  90 CALM      30.01R FOG
NEWBURGH       PTCLDY    70  70 100 W6        30.04S
MONTGOMERY     PTCLDY    68  67  96 CALM      30.02S FOG
WHITE PLAINS   PTCLDY    73  71  93 CALM      30.04R
ISLIP          MOCLDY    76  74  93 SW8       30.04S
NEW YORK CITY  MOCLDY    76  73  91 SW5       30.02S
CENTRAL PARK   CLEAR     75  71  87 CALM      30.06S
$$

NYZ005>009-017-018-044>046-055-056-221200-
CENTRAL


CITY           SKY/WX    TMP DP  RH WIND       PRES   REMARKS
FULTON         CLOUDY    69  66  90 SE5       29.91F
SYRACUSE       MOCLDY    69  67  93 SE5       29.92S
ROME           PTCLDY    68  66  93 E8        29.95F
ELMIRA         FOG       63  32  31 CALM      29.99S VSB 3/4
BINGHAMTON     PTCLDY    67  66  97 S8        30.03S FOG
MONTICELLO     FOG       63  63 100 N3        30.07F VSB 1/4
$$

NYZ026>034-041>043-087-221200-
NORTH


CITY           SKY/WX    TMP DP  RH WIND       PRES   REMARKS
WATERTOWN      PTCLDY    71  67  87 S10       29.86F
FORT DRUM      NOT AVBL
OGDENSBURG     FAIR      67  66  96 S6        29.88F
MASSENA        CLEAR     65  64  97 CALM      29.89F
SARANAC LAKE   PTCLDY    54  54 100 CALM      29.97S
PLATTSBURGH    PTCLDY    65  61  87 CALM      29.92F
$$

NYZ001>004-010>016-019>021-085-221200-
WEST


CITY           SKY/WX    TMP DP  RH WIND       PRES   REMARKS
NIAGARA FALLS  CLOUDY    77  69  76 SW15      29.85F
BUFFALO        MOCLDY    76  68  76 SW16G24   29.87F
DUNKIRK        CLEAR     75  69  81 S17       29.90S
JAMESTOWN      CLEAR     70  66  88 S8        29.99S
WELLSVILLE     CLEAR     71  66  84 SW5       30.03F HAZE
ROCHESTER      MOCLDY    74  68  81 SW12      29.88F
PENN YAN       CLEAR     71  67  87 SW7       29.96S
$$

             KEY
       WCI = WIND CHILL INDEX
       VSB = VISIBILITY
       HX  = HEAT INDEX
$$




USA.gov is the U.S. government's official web portal to all federal, state and local government web resources and services.